User: anonymous   Login
Location: Unspecified
(0.0000°N, 0.0000°E)
Time: 08:36:34
(UTC+00:00)
Language:

JAS-1B - Orbit

View from above orbital plane
View from above orbital plane
View from above satellite
View from above satellite

Ground track
Ground track

The orbit data is extracted from the following two-line orbital elements,

1 20480U 90013C   17293.28835733 -.00000049 +00000-0 -45097-4 0  9992
2 20480 099.0717 043.1418 0540914 107.7388 258.3486 12.83417246297728
Epoch (UTC): 20 October 2017 06:55:14
Eccentricity: 0.0540914
inclination: 99.0717°
perigee height: 911 km
apogee height: 1744 km
right ascension of ascending node: 43.1418°
argument of perigee: 107.7388°
revolutions per day: 12.83417246
mean anomaly at epoch: 258.3486°
orbit number at epoch: 29772

The dashed part of the orbit path shows where the satellite is in the earth's shadow,  

DLR